Date,TemperatureHighF,TemperatureAvgF,TemperatureLowF,DewpointHighF,DewpointAvgF,DewpointLowF,HumidityHigh,HumidityAvg,HumidityLow,PressureMaxIn,PressureMinIn,WindSpeedMaxMPH,WindSpeedAvgMPH,GustSpeedMaxMPH,PrecipitationSumIn
2013-2-1,43.3,29.9,17.3,19.0,10.0,0.0,58,45,29,30.48,30.16,11,3,0,0.00
2013-2-2,58.1,43.5,30.1,31.0,25.2,19.0,69,51,31,30.26,30.16,9,1,0,0.00
2013-2-3,56.7,48.4,40.8,30.0,24.7,19.0,62,41,24,30.29,29.91,11,3,0,0.00
2013-2-4,68.3,56.1,45.5,39.0,31.9,27.0,60,41,25,29.92,29.77,14,5,0,0.00
2013-2-5,68.3,50.7,34.9,41.0,32.5,27.0,80,54,23,30.01,29.89,9,1,0,0.00
2013-2-6,64.3,53.7,42.9,48.0,38.7,32.0,73,58,46,30.03,29.86,18,5,0,0.00
2013-2-7,59.9,52.1,43.6,53.0,46.2,36.0,88,80,70,30.11,29.80,16,6,0,0.00
2013-2-8,52.3,42.3,34.0,36.0,31.7,29.0,84,68,43,30.31,30.12,11,3,0,0.00
2013-2-9,43.9,40.3,38.3,41.0,33.0,-99.9,89,78,66,30.15,29.73,15,-5,0,0.12
2013-2-10,61.8,52.5,43.8,50.0,33.1,21.0,92,55,22,30.03,29.61,20,7,0,0.10
2013-2-11,53.9,44.1,35.3,25.0,23.0,19.0,63,45,27,30.21,30.02,9,2,0,0.00
2013-2-12,42.6,38.6,33.7,37.0,29.5,24.0,90,71,50,30.10,29.93,12,5,0,0.13
2013-2-13,55.9,42.3,34.1,37.0,29.2,-99.9,91,67,36,30.04,29.91,12,-19,0,0.00
2013-2-14,60.7,47.3,35.2,33.0,28.7,24.0,66,50,34,30.18,29.94,11,3,0,0.00
2013-2-15,46.0,37.9,30.1,29.0,16.6,8.0,70,45,23,30.39,30.18,14,4,0,0.00
2013-2-16,44.3,35.4,26.7,25.0,14.2,6.0,72,44,25,30.39,30.07,12,3,0,0.00
2013-2-17,68.8,51.3,33.8,32.0,26.4,19.0,70,42,21,30.07,29.73,19,8,0,0.00
2013-2-18,61.5,54.2,39.2,50.0,36.2,24.0,70,52,35,30.12,29.59,25,11,0,0.00
2013-2-19,52.0,38.0,30.1,23.0,11.5,-99.9,67,43,28,30.34,30.12,11,-72,0,0.00
2013-2-20,38.8,34.9,32.8,32.0,27.1,19.0,90,75,47,30.27,30.00,10,2,0,0.45
2013-2-21,35.3,31.2,28.5,33.0,22.2,-99.9,91,83,79,30.00,29.67,15,-60,0,0.57
2013-2-22,39.1,29.8,22.1,21.0,17.0,15.0,76,60,41,30.16,29.96,12,3,0,0.00
2013-2-23,45.8,33.7,22.4,23.0,18.9,15.0,75,57,35,30.13,29.94,6,1,0,0.00
2013-2-24,59.3,44.7,30.9,37.0,30.3,22.0,75,59,40,29.96,29.73,17,4,0,0.00
2013-2-25,45.1,39.6,33.5,36.0,33.7,31.0,90,80,62,29.79,29.43,20,8,0,0.36
2013-2-26,41.5,37.0,32.9,32.0,30.6,28.0,91,78,65,29.91,29.46,16,6,0,0.11
2013-2-27,47.9,37.9,32.4,30.0,26.2,22.0,80,65,37,30.14,29.90,16,5,0,0.00
2013-2-28,47.4,38.0,31.6,28.0,26.0,24.0,76,63,45,30.22,30.14,11,5,0,0.00